Regional Weather Roundup
Issued by NWS

Home | Current Version | Previous Version | Text Only | Print | Product List | Glossary Off
Versions: 1 2 3 4 5 6 7 8 9 10 11 12 13 14 15 16 17 18 19 20 21 22 23 24 25 26 27 28

000
ASUS45 KBOU 301007
RWRCO

WEATHER ROUNDUP FOR COLORADO
NATIONAL WEATHER SERVICE DENVER/BOULDER CO
400 AM MDT MON MAY 30 2016

NOTE: "FAIR" INDICATES FEW OR NO CLOUDS BELOW 12000 FEET WITH NO
SIGNIFICANT WEATHER AND/OR OBSTRUCTIONS TO VISIBILITY.

COZ001>005-013-030-031-301100-
...NORTHWEST COLORADO...

CITY           SKY/WX    TMP DP  RH WIND       PRES   REMARKS
CRAIG          FAIR      37  34  89 CALM      30.13S
HAYDEN         MOCLDY    43  34  70 E9        30.14F
MEEKER         FAIR      41  35  79 E3        30.14F
MOUNT WERNER   NOT AVBL
STEAMBOAT SPGS FAIR      37  33  84 CALM      30.17S
WALDEN         NOT AVBL
$$

COZ006>008-011-301100-
...WEST CENTRAL VALLEYS...

CITY           SKY/WX    TMP DP  RH WIND       PRES   REMARKS
GRAND JUNCTION FAIR      52  37  56 SE3       30.04S
MONTROSE       FAIR      46  31  55 E6        30.12R
EAGLE          FAIR      39  34  81 CALM      30.21S
RIFLE          FAIR      43  35  73 S5        30.11R
DELTA          FAIR      53  33  47 SE5       30.09R
NUCLA          FAIR      46  30  53 E8        30.13S
$$

COZ017>023-064>068-301100-
...SOUTHWEST COLORADO...

CITY           SKY/WX    TMP DP  RH WIND       PRES   REMARKS
DURANGO        FAIR      39  28  64 CALM      30.15R
CORTEZ         FAIR      40  28  62 NE7       30.10R
PAGOSA SPRINGS FAIR      41  26  56 CALM      30.21S
TELLURIDE      FAIR      42  26  52 SE7       30.28F
WOLF CREEK PAS CLOUDY    37  19  48 CALM      30.46S
$$

COZ009-010-012-014-032>034-037-058>063-301100-
...CENTRAL COLORADO...

CITY           SKY/WX    TMP DP  RH WIND       PRES   REMARKS
ASPEN          MOCLDY    40  29  64 SE3       30.20F
BUENA VISTA    FAIR      37  27  68 CALM      30.26S
COPPER MTN     NOT AVBL
BERTHOUD PASS  FAIR      32  23  69 W12       30.43F WCI  23
COTTONWOOD PAS FAIR      46  25  42 CALM      30.33S
GUNNISON       FAIR      37  28  70 CALM      30.27S
KREMMLING      FAIR      34  30  86 CALM      30.24S
LEADVILLE      FAIR      28  23  81 N3        30.32F
MONARCH PASS   FAIR      37  21  52 W6        30.54S
SALIDA         FAIR      44  30  59 NW8       30.32S
SUNLIGHT       FAIR      41  28  60 CALM      30.38S
WILKERSON PASS FAIR      37  28  70 SW6       30.42S
$$

COZ069>075-301100-
...SAN LUIS VALLEY/SANGRE DE CRISTO MOUNTAINS...

CITY           SKY/WX    TMP DP  RH WIND       PRES   REMARKS
ALAMOSA        FAIR      40  37  89 CALM      30.21R
LA VETA PASS   FAIR      45  28  53 CALM      30.33F
SAGUACHE       FAIR      43  32  65 NW15      30.22S
$$

COZ035-036-038>040-301100-
...NORTHERN COLORADO FRONT RANGE...

CITY           SKY/WX    TMP DP  RH WIND       PRES   REMARKS
DENVER INTL AP FAIR      50  40  68 SW10      30.07F
DMNS CITY PARK   N/A     50  41  69 S6        30.07F
AURORA         PTCLDY    50  40  69 S12       30.09F
FRONT RANGE AP NOT AVBL
ERIE MUNI ARPT FAIR      46  41  84 CALM      30.07F
BOULDER MUN AP FAIR      52  37  58 CALM      30.07F
CENTENNIAL     FAIR      49  38  65 S8        30.10F
BROOMFIELD     FAIR      50  39  66 CALM      30.08F
FORT COLLINS   FAIR      48  45  87 SW5       30.07F
LONGMONT       FAIR      48  41  78 CALM      30.09F
$$

COZ041-046-047-076>085-087-088-301100-
...PIKES PEAK/PALMER DIVIDE AND SOUTHERN FOOTHILLS...

CITY           SKY/WX    TMP DP  RH WIND       PRES   REMARKS
COLO. SPRINGS  FAIR      48  40  73 N10       30.13F
A. F. ACADEMY  FAIR      39  37  93 N10       30.14F
SCHRIEVER AFB  NOT AVBL
ELLICOTT       NOT AVBL
FALCON         FAIR      47  39  75 NW6       30.16F
FORT CARSON    FAIR      47  41  81 NW6       30.11S
LIMON          FAIR      40  40 100 N6        30.09F
MONUMENT HILL  FAIR      41  36  81 S6        30.18F
TRINIDAD       FAIR      54  45  71 W16       30.11S
$$

COZ042>045-048>051-090-091-301100-
...NORTHEAST COLORADO...

CITY           SKY/WX    TMP DP  RH WIND       PRES   REMARKS
GREELEY ARPT   FAIR      48  43  81 W9        30.06F
AKRON          FAIR      51  46  83 S8        30.06F
BURLINGTON     FAIR      51  47  86 S9        30.05F
WRAY           FAIR      54  48  82 CALM      30.04F
STERLING       FAIR      52  50  93 S8        30.03F
HOLYOKE        FAIR      59  52  77 SW10      30.03S
FORT MORGAN    FAIR      49  44  83 W7        30.04F
$$

COZ086-089-092>099-301100-
...SOUTHEAST COLORADO...

CITY           SKY/WX    TMP DP  RH WIND       PRES   REMARKS
PUEBLO         FAIR      52  46  80 N8        30.07F
LA JUNTA       FAIR      52  46  80 E7        30.05F
LAMAR          FAIR      47  45  93 E6        30.03F
SPRINGFIELD      N/A     48  46  93 SW3       30.07F
$$




USA.gov is the U.S. government's official web portal to all federal, state and local government web resources and services.